{"data":{"norad_id":68149,"epoch":"2026-05-24T23:44:05.699904Z","epoch_age_seconds":69818,"freshness":"FRESH","line1":"1 68149U 26049H   26144.98895486  .00014596  00000+0  45339-3 0  9994","line2":"2 68149  97.2854 166.7007 0001911 106.1525 253.9928 15.33456130 11342","mean_motion":15.3345613,"eccentricity":0.0001911,"inclination_deg":97.2854,"raan_deg":166.7007,"arg_perigee_deg":106.1525,"mean_anomaly_deg":253.9928,"bstar":0.00045339,"rev_number":1134,"period_min":93.90552307486,"perigee_km":464.20223867595,"apogee_km":466.81788058214,"semimajor_km":6843.647059629,"source":"CELESTRAK","updated_at":"2026-05-25T13:38:21.847776Z"}}